Aérodrome :
LOGIN :

S'inscrire | Disclaimer

   EN    FR    IT 

 










Légende :    VFR   VFR Marginal   IFR   IFR Intensif   IFR Très Intensif
Visi : 
Plafond : 
>= 8 km
>= 3000ft
5 à 8 km
1000 à 3000 ft
1500m à 5 km
500 à 1000 ft
800 à 1500m
200 à 500 ft
< 800m
< 200 ft
Symboles :   Orages  Brouillard  Fortes neiges  Fortes précipitations  Vent > 20 kt
SIGMETs :   Divers  Orages  Givrage  Turbulence  Onde Orograph.  Cendres Volcan.







- Altitude de l'aérodrome : 433 ft
- Voir les cartes d'approche


LFOC - Chateaudun

DERNIER METAR :
  • 240430Z AUTO 35004KT 4600 BR OVC033 06/05 Q1027

METARs EXPIRÉS :
  • 240400Z AUTO 36003KT 4800 // BKN032 05/04 Q1027
  • 240330Z AUTO 35004KT 5000 BR BKN030 BKN130 06/05 Q1027
  • 240300Z AUTO 35003KT 4900 BR FEW025 BKN034 BKN140 05/04 Q1027
  • 240230Z AUTO 35004KT 320V030 5000 // OVC032 06/05 Q1027
  • 240200Z AUTO 35004KT 5000 // SCT031 BKN150 05/04 Q1027

Prévision TAF périmée.
Pas de NOTAMs connus pour ce terrain.



MET'MAP, la Météo Aéronautique d'un coup d'oeil ! - Copyright ORBIFLY Décembre 2007 - Disclaimer

ORBIFLY MET'MAP TEAM :

Programmation & Développement : Alexandra Zaïnal
Conception & Développement : Baudouin d'Aumeries
Co-Programmation & Développement : Marc-Olivier Méhu
Soutien technique & logistique : Manuel Goepfert

Contact : metmap@orbifly.com




SOURCES & CREDITS :

   NOAA